Regional Weather Roundup
Issued by NWS

Home | Current Version | Previous Version | Graphics & Text | Print | Product List | Glossary On
Versions: 1 2 3 4 5 6 7 8 9 10 11 12 13 14 15 16 17 18 19 20 21 22 23 24 25 26 27 28 29 30 31 32 33 34 35 36 37 38 39 40 41 42 43 44 45 46 47 48 49 50
000
ASUS43 KOAX 210110
RWRNE

WEATHER ROUNDUP FOR NEBRASKA
NATIONAL WEATHER SERVICE OMAHA NE
800 PM CDT WED AUG 20 2014

NOTES: SATELLITE DATA IS BEING USED TO AUGMENT CLOUD COVER ABOVE
       12000 FEET.
       "FAIR" INDICATES FEW OR NO CLOUDS BELOW 12,000 FEET WITH NO
       SIGNIFICANT WEATHER AND/OR OBSTRUCTIONS TO VISIBILITY.

  * THESE STATIONS DO NOT REPORT WEATHER SUCH AS RAIN...SNOW OR FOG.

NEZ001>004-019>022-054>056-210200-
NEBRASKA PANHANDLE

CITY           SKY/WX    TMP DP  RH WIND       PRES   REMARKS
SCOTTSBLUFF    PTCLDY    86  53  32 W7        29.82R
ALLIANCE       PTCLDY    89  44  20 W12       29.80S
CHADRON        CLEAR     88  48  25 W9        29.75R
KIMBALL        LGT RAIN  72  59  64 W7        29.93R
SIDNEY         CLOUDY    81  55  40 E6        29.89R
$$

NEZ057>060-069>072-079>082-210200-
SOUTHWEST NEBRASKA

CITY           SKY/WX    TMP DP  RH WIND       PRES   REMARKS
NORTH PLATTE   CLEAR     84  67  56 CALM      29.74R
IMPERIAL       MOCLDY    85  61  44 NW6       29.79S
LEXINGTON      CLEAR     86  71  59 SE8       29.73S HX  91
MCCOOK         CLOUDY    87  61  41 SW15G22   29.75R
OGALLALA       MOCLDY    80  63  56 CALM      29.81R
$$

NEZ005>010-023>029-035>040-094-210200-
NORTH CENTRAL NEBRASKA

CITY           SKY/WX    TMP DP  RH WIND       PRES   REMARKS
VALENTINE      CLEAR     86  64  47 S14       29.71R
AINSWORTH      CLEAR     82  68  62 S6        29.74S
BROKEN BOW     CLEAR     84  71  65 SE8       29.73S
O`NEILL        CLEAR     85  74  70 S9        29.73R HX  93
ORD            PTCLDY    86  71  60 SE14      29.71S HX  91
THEDFORD       CLEAR     84  66  53 S6        29.76S
$$

NEZ041-046>049-061>064-073>077-083>087-210200-
SOUTH CENTRAL NEBRASKA

CITY           SKY/WX    TMP DP  RH WIND       PRES   REMARKS
GRAND ISLAND   CLEAR     85  72  65 SE13      29.74F HX  91
AURORA         CLEAR     84  73  69 SE8       29.75R HX  91
HASTINGS       CLEAR     87  67  51 S13       29.74S HX  90
HEBRON         MOCLDY    85  67  54 S7        29.75R
HOLDREGE       PTCLDY    85  67  53 SE9       29.72F
KEARNEY *      CLEAR     82  72  69 SE9       29.73F
YORK           PTCLDY    84 N/A N/A S9        29.75S
$$

NEZ011>018-030>034-042>045-210200-
NORTHEAST NEBRASKA

CITY           SKY/WX    TMP DP  RH WIND       PRES   REMARKS
NORFOLK        CLEAR     85  70  60 SE10      29.75S
ALBION         CLEAR     83  72  67 SE6       29.74S
BLAIR          CLEAR     85  73  69 SE9       29.77S HX  91
COLUMBUS *     PTCLDY    82  72  69 SE8       29.76S
FREMONT        CLEAR     86  72  62 SE13G18   29.76S HX  93
TEKAMAH        PTCLDY    85  74  69 SE15      29.75S HX  92
WAYNE          MOCLDY    82  77  83 SE9       29.76R HX  90
$$

NEZ050>053-065>068-078-088>093-210200-
SOUTHEAST NEBRASKA

CITY           SKY/WX    TMP DP  RH WIND       PRES   REMARKS
LINCOLN        MOCLDY    90  69  50 S13       29.75F HX  94
OMAHA EPPLEY   PTCLDY    86  73  65 SE18      29.76F HX  93
BEATRICE       MOCLDY    89  70  54 S7        29.76S HX  94
FALLS CITY     CLEAR     84  76  76 SE9       29.78S HX  93
NEBRASKA CITY  CLEAR     82  73  74 SE8       29.79S
PLATTSMOUTH    CLEAR     84  72  66 SE8       29.78S HX  90
$$

NEZ044-045-051>053-067-210200-
OMAHA AREA

CITY           SKY/WX    TMP DP  RH WIND       PRES   REMARKS
OMAHA EPPLEY   PTCLDY    86  73  65 SE18      29.76F HX  93
BLAIR          CLEAR     85  73  69 SE9       29.77S HX  91
FREMONT        CLEAR     86  72  62 SE13G18   29.76S HX  93
MILLARD        CLEAR     86  74  68 SE12      29.76S HX  94
OFFUTT AFB     CLEAR     84  77  81 SE13      29.77S HX  94
PLATTSMOUTH    CLEAR     84  72  66 SE8       29.78S HX  90
WAHOO          FAIR      85  69  58 SE6       29.75F
$$



USA.gov is the U.S. government's official web portal to all federal, state and local government web resources and services.